Location: Kolo
(51.8330°N, 14.7830°E)
Time: 12:24:53
(UTC+01:00)

ISS - Visible Passes

Search period start: 29 October 2020 00:00
Search period end: 08 November 2020 00:00
Orbit: 417 x 420 km, 51.6° (Epoch: 29 October)

Date Brightness Start Highest point End Pass type
(mag) Time Alt. Az. Time Alt. Az. Time Alt. Az.
29 Oct -2.4 04:23:27 36° SE 04:23:27 36° SE 04:26:08 10° E visible
29 Oct -3.7 05:56:24 11° W 05:59:36 86° S 06:02:58 10° E visible
30 Oct -0.5 03:37:44 13° E 03:37:44 13° E 03:38:15 10° E visible
30 Oct -3.8 05:10:41 38° WSW 05:11:49 77° S 05:15:11 10° E visible
31 Oct -2.7 04:24:55 44° ESE 04:24:55 44° ESE 04:27:25 10° E visible
31 Oct -3.8 05:57:52 13° W 06:00:50 88° S 06:04:12 10° E visible
01 Nov -0.5 03:39:07 13° E 03:39:07 13° E 03:39:37 10° E visible
01 Nov -3.9 05:12:04 43° W 05:13:02 89° SSW 05:16:25 10° E visible
02 Nov -2.6 04:26:14 43° E 04:26:14 43° E 04:28:37 10° E visible
02 Nov -3.7 05:59:11 14° W 06:02:02 71° SSW 06:05:23 10° ESE visible
03 Nov -0.4 03:40:25 13° E 03:40:25 13° E 03:40:50 10° E visible
03 Nov -3.8 05:13:21 46° W 05:14:15 82° S 05:17:37 10° ESE visible
04 Nov -2.5 04:27:32 41° E 04:27:32 41° E 04:29:50 10° E visible
04 Nov -3.1 06:00:29 14° W 06:03:08 45° SSW 06:06:22 10° SE visible
05 Nov -0.4 03:41:44 12° E 03:41:44 12° E 03:42:02 10° E visible
05 Nov -3.6 05:14:41 45° WSW 05:15:24 58° SSW 05:18:42 10° ESE visible
06 Nov -2.2 04:28:54 34° ESE 04:28:54 34° ESE 04:30:59 10° ESE visible
06 Nov -2.3 06:01:51 13° W 06:04:05 25° SSW 06:06:53 10° SSE visible
07 Nov -0.3 03:43:10 10° E 03:43:10 10° E 03:43:12 10° E visible
07 Nov -2.9 05:16:08 33° SW 05:16:24 34° SSW 05:19:29 10° SE visible
